Location: Calvatone
(45.1167°N, 10.4333°E)
Time: 14:31:18
(UTC+00:00)

Cosmos 407 Rocket - Pass Details

Date: 28 January 2023
Orbit: 742 x 786 km, 74.0° (Epoch: 29 March)

Event Time Altitude Azimuth Distance (km) Brightness Sun altitude
Rises 17:38:11 0° 188° (S) 3,200 7.0 -13.9°
Reaches altitude 10° 17:40:34 10° 184° (S) 2,273 6.1 -14.3°
Maximum altitude 17:45:37 58° 106° (ESE) 871 3.5 -15.2°
Enters shadow 17:50:23 11° 29° (NNE) 2,171 5.5 -16.0°
